Lid_Strength_Index
7 7 7 7 7 7 7 7 9 8 8 6 5 5 4 4 4 4 4 3 3 3 3 2 2 2 1 1 1 1 1 1 1 1 0 0 0 0 -0 0 0 0 0 -0
8 7 7 8 7 7 7 7 7 7 7 5 4 4 4 3 4 4 4 3 3 3 2 2 2 1 1 1 1 1 1 1 1 1 0 0 0 1 0 0 0 0 0 0
10 7 8 9 7 7 7 6 6 8 6 4 5 5 4 3 4 4 4 3 3 3 2 2 2 1 1 1 1 1 1 1 1 1 1 1 1 1 1 1 0 1 1 1
10 8 13 8 5 5 6 6 5 5 5 5 4 4 4 3 3 4 4 3 3 2 2 2 1 1 1 1 1 2 2 2 1 1 1 1 1 1 1 1 1 1 1 1
10 10 9 7 6 6 7 7 5 5 5 4 4 3 4 3 3 3 3 2 2 2 2 1 1 1 1 1 1 2 2 2 2 1 2 2 2 2 1 1 1 1 1 1
9 11 13 8 5 4 5 9 5 4 5 4 4 7 5 3 3 3 2 2 2 2 1 2 1 1 1 2 1 2 2 2 1 1 1 2 1 1 1 1 1 1 1 1
9 10 9 6 5 4 10 8 4 4 4 5 6 4 4 3 3 2 2 2 1 1 2 1 1 1 2 2 2 1 1 1 1 1 1 1 1 1 1 1 1 1 1 1
9 12 13 5 5 7 5 4 4 5 4 5 4 4 3 3 3 2 2 2 2 2 2 1 1 1 2 2 1 1 1 1 2 2 1 1 1 2 2 2 2 2 2 1
9 10 5 4 5 3 3 4 4 4 4 3 4 4 3 3 3 2 2 2 2 2 2 1 1 1 3 2 1 1 1 2 1 1 1 1 2 2 3 2 2 2 2 2
9 7 6 6 4 3 3 3 3 3 3 3 4 3 3 3 3 3 2 2 2 2 2 2 2 2 2 1 1 1 2 2 2 2 2 2 2 2 2 2 2 2 2 3
10 8 7 5 4 4 3 3 3 3 3 3 3 3 3 3 3 2 2 2 2 2 3 2 2 2 2 2 1 2 2 2 3 7 9 11 12 10 7 11 3 2 2 2
12 8 8 6 4 3 4 3 3 3 3 2 2 3 2 3 2 2 2 2 3 2 2 2 2 2 2 1 2 2 3 5 6 6 6 7 8 10 14 13 13 13 11 7
10 7 7 5 4 3 4 3 2 2 2 3 2 2 2 2 2 3 2 3 3 3 2 2 3 3 2 2 2 3 5 4 5 5 5 5 5 6 8 10 13 14 13 13
7 8 9 7 6 3 3 3 3 2 2 2 2 2 2 2 2 3 3 3 3 3 4 5 6 5 4 3 3 4 4 8 4 5 4 4 4 5 6 6 9 10 11 11
6 6 7 6 4 4 3 3 3 3 3 2 2 2 2 3 3 3 3 4 5 6 6 7 6 6 5 5 5 5 4 4 4 4 2 4 2 3 4 5 6 8 9 9
6 6 6 6 6 4 4 4 4 3 3 2 2 3 3 3 3 5 6 5 6 7 7 6 7 6 5 4 5 5 5 5 3 2 1 2 3 4 5 5 6 5 5 5
6 8 7 7 5 4 4 3 3 3 3 3 3 3 3 4 5 5 6 6 6 7 7 7 6 4 4 3 4 4 3 2 3 3 3 4 4 4 4 4 5 5 4 6
4 4 5 4 5 4 3 3 2 2 3 3 3 4 4 5 6 6 6 5 7 6 6 6 5 5 6 5 4 5 5 4 4 4 4 4 4 4 4 5 5 5 4 4
3 3 4 3 3 3 3 3 3 2 3 3 4 4 4 5 5 4 4 5 5 6 5 3 5 6 7 6 5 5 5 5 5 5 5 5 4 4 5 5 4 5 4 4
4 3 3 3 3 3 3 3 3 3 3 3 3 5 5 6 5 6 6 6 6 5 5 5 5 5 5 4 4 5 5 6 6 5 5 4 5 5 5 5 3 3 3 2
5 4 3 3 3 3 3 3 3 4 3 4 5 6 5 5 4 4 5 6 5 4 3 3 4 4 4 4 4 4 4 5 5 5 4 3 2 2 3 3 2 2 2 1
5 5 4 4 4 4 3 3 4 4 4 4 3 3 4 3 2 3 2 4 4 5 4 4 4 4 4 2 2 2 1 1 1 1 2 2 2 2 2 2 2 2 1 1
4 4 4 4 4 4 3 3 4 4 4 4 3 3 3 4 3 5 6 4 6 6 4 3 4 3 2 1 2 2 2 2 2 2 2 2 2 2 2 2 2 1 1 1
4 4 4 3 3 4 4 4 3 3 2 2 2 2 2 3 2 2 3 5 5 5 4 3 3 3 3 2 2 2 2 2 2 2 2 4 1 1 0 1 1 1 1 2
3 4 3 4 4 4 4 3 3 3 2 2 2 1 1 1 2 2 3 3 4 4 3 5 3 2 1 0 1 1 1 0 0 -0 -0 -0 -0 -1 -0 -0 -0 0 0 0
3 3 3 3 3 3 3 3 3 3 2 3 2 2 1 1 0 1 1 2 1 2 1 0 0 -0 -0 -0 -0 -0 -0 -0 -0 -0 0 -0 -0 -0 0 0 0 -0 -0 0
2 5 3 3 2 2 2 2 2 3 3 3 2 1 1 0 1 1 2 1 1 1 0 -0 -0 -0 -0 -0 -0 -1 -1 -0 2 -0 -0 -1 -0 0 1 1 0 0 -0 -0